Погода в Антигуа

Антигуа и Барбуда     17°04′04″N   61°46′34″W
темп.,
°C
ветер,
м/с
пор.,
м/с
влажн.,
%
обл.,
%
осадки,
мм/ч
давл.,
гПа
погр.,
м
9 августа, вт
вт923:00+27всв911812 0.0 1015912
02:00+27всв9107515 0.0 1014907
05:00+27всв78748 0.0 1014622
08:00+28всв897559 0.2 1015806
11:00+29всв887184 0.0 1016798
14:00+29всв887136 0.0 1015829
17:00+28всв89759 0.0 1015879
20:00+27в897854 0.0 1016848
10 августа, ср
ср1023:00+27в897793 0.0 1017951
02:00+27в81075100 0.1 1015895
05:00+27в81074100 0.0 1015897
08:00+28в797248 0.1 10161000
11:00+29в69696 0.1 1016992
14:00+29в89725 0.1 10161062
17:00+28всв8876100 0.6 1015906
20:00+27в7978100 1.3 1017817
11 августа, чт
чт1123:00+27в91079100 0.2 1017871
02:00+27в9107786 0.2 1015892
05:00+27в897654 0.1 1015794
08:00+28вюв797473 0.6 1015769
11:00+29вюв786993 0.1 1016987
14:00+29вюв6766100 0.1 10151056
17:00+28в6770100 0.0 10151052
20:00+28всв6876100 0.0 1016890
12 августа, пт
пт1223:00+27всв7876100 0.0 1016894
02:00+27всв8975100 0.0 1014863
05:00+27всв8871100 0.0 10141099
08:00+28в787031 0.1 10161109
11:00+28всв67727 0.1 1016958
14:00+29всв887317 0.4 1015981
17:00+28в78766 0.3 1014973
20:00+27в79781 0.3 1015911
13 августа, сб
сб1323:00+27в79745 0.1 1015924
02:00+27всв79734 0.1 1014877
05:00+28всв687295 0.1 1014705
08:00+28в810735 0.3 1015929
11:00+28в787079 0.0 10161150
14:00+29в787286 0.1 10141005
17:00+28в787523 0.1 1014830
20:00+27всв798028 0.3 1014710